Погода в Новочуртахе

Россия / Республика Дагестан     43°12′31″N   46°32′11″E
темп.,
°C
ветер,
м/с
пор.,
м/с
влажн.,
%
обл.,
%
осадки,
мм/ч
давл.,
гПа
погр.,
м
11 апреля, вс
вс1100:00+8зсз117479 0.0 102019
03:00+7юз1181100 0.0 102012
06:00+7всв117875 0.0 102060
09:00+11св236519 0.0 1019772
12:00+16всв6748100 0.0 1016979
15:00+16всв675061 0.0 1014648
18:00+12св1166100 0.0 101529
21:00+11з116783 0.0 101514
12 апреля, пн
пн1200:00+10зюз2273100 0.0 101521
03:00+10зюз2373100 0.0 101550
06:00+10зюз3476100 0.0 101777
09:00+14зсз5660100 0.1 1019733
12:00+17сз3353100 0.0 10191218
15:00+17с2252100 0.0 10191430
18:00+15всв226687 0.0 102038
21:00+12зсз357836 0.0 1021102
13 апреля, вт
вт1300:00+10з248636 0.0 102186
03:00+10з358763 0.0 1022105
06:00+10сз1185100 0.0 102257
09:00+13с2272100 0.0 1022638
12:00+15с1267100 0.0 1020809
15:00+18ссв345336 0.0 10181265
18:00+14св236816 0.0 1019113
21:00+11ююз1180100 0.0 101913
14 апреля, ср
ср1400:00+10вюв118521 0.0 101613
03:00+10з2287100 0.0 101526
06:00+10зюз3690100 0.0 1015198
09:00+14з4572100 0.0 1015573
12:00+16зсз5763100 0.1 10151188
15:00+12ююз4579100 2.4 1016288
18:00+13зсз017097 0.6 101613
21:00+12юз2275100 0.7 101730
15 апреля, чт
чт1500:00+11юз4789100 7.7 1017332
03:00+11ююз3484100 8.6 101798
06:00+11зюз3581100 0.0 101692
09:00+15зсз566331 0.0 1016897
12:00+18зсз564950 0.0 10141341
15:00+19сз45432 0.0 10131854
18:00+16сз12570 0.0 101411
21:00+13ююз33600 0.0 101533